GW6058 Weather Reports


time (UTC)temp
F
wind
direction
speed
knots
gust
knots
rain 1hr
in
rain 24hr
in
rain mn
in
humidity
%
barometer
mb
20260506165310 85 170 3.5 13.0 0.00 0.00 0.00 52
20260506164807 85 179 4.3 7.8 0.00 0.00 0.00 52
20260506164304 85 257 5.2 8.7 0.00 0.00 0.00 53
20260506163801 84 253 2.6 6.1 0.00 0.00 0.00 53
20260506163255 84 240 5.2 9.6 0.00 0.00 0.00 53
20260506162751 85 260 4.3 7.8 0.00 0.00 0.00 53
20260506162250 83 265 2.6 5.2 0.00 0.00 0.00 56
20260506161747 83 230 2.6 6.1 0.00 0.00 0.00 56
20260506161244 84 242 5.2 7.8 0.00 0.00 0.00 53
20260506160741 83 251 4.3 6.1 0.00 0.00 0.00 55
20260506160238 83 290 3.5 7.8 0.00 0.00 0.00 58
20260506155737 82 227 2.6 6.1 0.00 0.00 0.00 57
20260506155233 82 268 4.3 7.8 0.00 0.00 0.00 58
20260506153340 81 167 1.7 8.7 0.00 0.00 0.00 62
20260506152837 82 172 4.3 7.0 0.00 0.00 0.00 60
20260506152334 82 141 0.9 3.5 0.00 0.00 0.00 61
20260506151833 80 289 1.7 6.1 0.00 0.00 0.00 62
20260506151329 81 278 3.5 7.0 0.00 0.00 0.00 60
20260506150827 80 230 6.1 7.8 0.00 0.00 0.00 61
20260506150323 80 260 3.5 7.8 0.00 0.00 0.00 64
20260506145820 80 271 3.5 6.1 0.00 0.00 0.00 64
20260506145316 80 222 4.3 5.2 0.00 0.00 0.00 65
20260506144814 79 183 5.2 7.8 0.00 0.00 0.00 66
20260506144310 80 152 3.5 7.8 0.00 0.00 0.00 65
20260506143809 78 201 3.5 6.1 0.00 0.00 0.00 67
20260506143305 78 227 4.3 6.1 0.00 0.00 0.00 67
20260506142804 78 201 2.6 7.0 0.00 0.00 0.00 67
20260506142301 78 253 7.0 7.8 0.00 0.00 0.00 67
20260506141759 78 202 3.5 7.8 0.00 0.00 0.00 68
20260506141258 77 191 1.7 7.0 0.00 0.00 0.00 69
20260506140755 77 230 3.5 5.2 0.00 0.00 0.00 68
20260506140252 77 240 3.5 5.2 0.00 0.00 0.00 69
20260506135749 77 207 1.7 3.5 0.00 0.00 0.00 69
20260506135245 76 220 3.5 3.5 0.00 0.00 0.00 70
20260506134742 75 205 2.6 5.2 0.00 0.00 0.00 71
20260506134238 75 242 4.3 6.1 0.00 0.00 0.00 71
20260506133736 74 229 2.6 6.1 0.00 0.00 0.00 72
20260506133232 74 273 2.6 5.2 0.00 0.00 0.00 72
20260506132729 73 226 1.7 3.5 0.00 0.00 0.00 73
20260506132226 73 158 4.3 6.1 0.00 0.00 0.00 73
20260506131724 72 263 2.6 5.2 0.00 0.00 0.00 75
20260506131220 72 108 5.2 7.0 0.00 0.00 0.00 74
20260506130717 71 290 1.7 1.7 0.00 0.00 0.00 77
20260506130214 70 165 1.7 5.2 0.00 0.00 0.00 77
20260506125712 70 187 2.6 2.6 0.00 0.00 0.00 78
20260506125209 69 266 0.9 2.6 0.00 0.00 0.00 79
20260506124707 69 190 0.9 2.6 0.00 0.00 0.00 79
20260506124205 68 224 0.0 2.6 0.00 0.00 0.00 80
20260506123702 68 188 1.7 3.5 0.00 0.00 0.00 80
20260506123201 67 235 1.7 1.7 0.00 0.00 0.00 82
20260506122657 67 172 0.9 3.5 0.00 0.00 0.00 83
20260506122155 66 184 0.9 1.7 0.00 0.00 0.00 83
20260506121652 65 175 1.7 1.7 0.00 0.00 0.00 84
20260506121148 65 181 0.9 2.6 0.00 0.00 0.00 85
20260506120647 65 206 1.7 1.7 0.00 0.00 0.00 85
20260506120143 64 172 0.0 1.7 0.00 0.00 0.00 86
20260506115642 64 185 0.0 1.7 0.00 0.00 0.00 87
20260506115140 64 113 0.0 0.9 0.00 0.00 0.00 88
20260506114637 63 174 0.0 0.9 0.00 0.00 0.00 89
20260506114135 63 186 0.0 2.6 0.00 0.00 0.00 90
20260506113633 62 123 0.0 1.7 0.00 0.00 0.00 91
20260506113130 62 117 0.0 0.9 0.00 0.00 0.00 92
20260506112626 62 115 0.0 0.0 0.00 0.00 0.00 92
20260506112124 62 115 0.9 0.9 0.00 0.00 0.00 93
20260506111621 62 115 0.0 0.0 0.00 0.00 0.00 93
20260506111119 62 115 0.0 0.0 0.00 0.00 0.00 93
20260506110616 62 115 0.0 0.0 0.00 0.00 0.00 93
20260506110113 62 114 0.0 0.9 0.00 0.00 0.00 93
20260506105609 62 96 0.0 0.0 0.00 0.00 0.00 94
20260506105107 62 122 0.9 0.9 0.00 0.00 0.00 95
20260506104605 62 109 0.0 0.9 0.00 0.00 0.00 95
20260506104102 62 120 0.0 0.0 0.00 0.00 0.00 95
20260506103559 62 100 0.9 1.7 0.00 0.00 0.00 95
20260506103056 62 105 0.9 0.9 0.00 0.00 0.00 95
20260506102554 62 122 0.0 0.0 0.00 0.00 0.00 94
20260506102051 62 128 0.0 0.0 0.00 0.00 0.00 94
20260506101548 62 129 0.0 0.0 0.00 0.00 0.00 94
20260506101045 62 129 0.0 0.9 0.00 0.00 0.00 94
20260506100543 62 142 0.0 0.0 0.00 0.00 0.00 94
20260506100041 62 137 0.0 0.0 0.00 0.00 0.00 93
20260506095540 62 144 0.0 0.0 0.00 0.00 0.00 93
20260506095036 62 144 0.0 0.0 0.00 0.00 0.00 93
20260506094533 63 151 0.0 0.0 0.00 0.00 0.00 93
20260506094031 63 152 0.0 0.0 0.00 0.00 0.00 93
20260506093529 63 150 0.0 0.0 0.00 0.00 0.00 93
20260506093026 63 120 0.0 1.7 0.00 0.00 0.00 93
20260506092524 63 186 0.0 0.0 0.00 0.00 0.00 93
20260506092020 63 201 0.0 0.9 0.00 0.00 0.00 93
20260506091519 63 177 0.0 0.9 0.00 0.00 0.00 93
20260506091016 63 134 0.0 0.9 0.00 0.00 0.00 92
20260506090514 63 126 0.0 0.9 0.00 0.00 0.00 92
20260506090010 63 155 0.0 0.9 0.00 0.00 0.00 92
20260506085507 63 149 0.0 0.9 0.00 0.00 0.00 92
20260506085003 63 131 0.0 0.9 0.00 0.00 0.00 92
20260506084500 64 131 0.0 0.9 0.00 0.00 0.00 92
20260506083956 63 152 0.9 1.7 0.00 0.00 0.00 93
20260506083453 63 125 0.0 0.9 0.00 0.00 0.00 92
20260506082950 63 127 0.9 0.9 0.00 0.00 0.00 92
20260506082447 63 134 0.0 0.0 0.00 0.00 0.00 92
20260506081943 64 151 0.0 0.0 0.00 0.00 0.00 91
20260506081442 64 153 0.0 0.0 0.00 0.00 0.00 91
20260506080939 64 143 0.0 0.0 0.00 0.00 0.00 91
20260506080436 64 130 0.0 0.9 0.00 0.00 0.00 91
20260506073420 64 217 0.9 1.7 0.00 0.00 0.00 90
20260506072917 64 107 0.9 1.7 0.00 0.00 0.00 90
20260506072414 64 108 0.9 0.9 0.00 0.00 0.00 89
20260506071912 64 128 0.0 0.9 0.00 0.00 0.00 89
20260506071410 64 135 0.0 0.0 0.00 0.00 0.00 89
20260506070906 64 126 0.0 0.0 0.00 0.00 0.00 88
20260506070403 64 120 0.0 0.0 0.00 0.00 0.00 87
20260506062340 65 134 0.0 0.9 0.00 0.00 0.00 84
20260506061836 65 181 0.0 0.9 0.00 0.00 0.00 84
20260506061333 65 207 0.0 1.7 0.00 0.00 0.00 84
20260506060831 65 111 0.0 0.0 0.00 0.00 0.00 83
20260506060329 65 161 1.7 1.7 0.00 0.00 0.00 84
20260506051300 66 153 0.0 1.7 0.00 0.00 0.00 80
20260506050759 66 121 0.0 0.9 0.00 0.00 0.00 79
20260506050256 66 97 0.0 3.5 0.00 0.00 0.00 79
20260506044746 65 98 0.9 2.6 0.00 0.00 0.00 82
20260506044243 65 101 0.0 0.0 0.00 0.00 0.00 81
20260506043741 65 112 0.0 0.9 0.00 0.00 0.00 81
20260506043238 66 119 0.0 0.0 0.00 0.00 0.00 79
20260506042737 67 120 0.0 0.0 0.00 0.00 0.00 78
20260506042235 67 120 0.0 0.9 0.00 0.00 0.00 77
20260506041733 67 130 0.0 0.0 0.00 0.00 0.00 77
20260506041230 68 139 0.0 0.0 0.00 0.00 0.00 75
20260506040727 69 141 0.0 0.9 0.00 0.00 0.00 74
20260506040224 69 207 0.0 0.0 0.00 0.00 0.00 73
20260506035721 69 222 1.7 1.7 0.00 0.00 0.00 74
20260506035218 69 249 0.0 0.9 0.00 0.00 0.00 73
20260506034714 68 253 0.0 1.7 0.00 0.00 0.00 74
20260506034212 69 190 0.0 0.0 0.00 0.00 0.00 74
20260506033709 69 200 0.0 0.0 0.00 0.00 0.00 73
20260506033206 69 201 0.0 0.0 0.00 0.00 0.00 72
20260506032703 69 214 0.0 0.9 0.00 0.00 0.00 71
20260506032200 70 202 0.0 0.0 0.00 0.00 0.00 71
20260506031657 70 225 0.0 0.9 0.00 0.00 0.00 70
20260506031154 70 229 0.9 1.7 0.00 0.00 0.00 70
20260506030652 70 212 0.0 0.0 0.00 0.00 0.00 69
20260506030149 71 216 0.0 0.0 0.00 0.00 0.00 69
20260506025646 71 234 0.0 0.9 0.00 0.00 0.00 68
20260506025142 71 218 0.0 0.0 0.00 0.00 0.00 68
20260506024640 71 228 0.9 0.9 0.00 0.00 0.00 67
20260506024136 71 212 0.0 0.0 0.00 0.00 0.00 67
20260506023632 72 210 0.0 0.9 0.00 0.00 0.00 66
20260506023129 72 275 0.9 1.7 0.00 0.00 0.00 65
20260506022627 72 252 0.0 0.9 0.00 0.00 0.00 65
20260506022124 72 226 0.0 0.9 0.00 0.00 0.00 64
20260506021622 72 206 0.9 1.7 0.00 0.00 0.00 64
20260506021119 72 236 1.7 1.7 0.00 0.00 0.00 64
20260506020616 72 246 0.0 0.0 0.00 0.00 0.00 63
20260506020113 72 206 0.0 1.7 0.00 0.00 0.00 63
20260506015611 72 203 0.0 0.0 0.00 0.00 0.00 62
20260506015107 72 223 0.0 0.9 0.00 0.00 0.00 62
20260506014605 72 236 0.9 0.9 0.00 0.00 0.00 62
20260506014100 73 234 0.0 0.0 0.00 0.00 0.00 62
20260506013559 73 234 0.0 0.0 0.00 0.00 0.00 60
20260506013055 74 240 0.9 1.7 0.00 0.00 0.00 59
20260506012551 74 235 0.0 0.0 0.00 0.00 0.00 58
20260506012048 74 270 0.9 1.7 0.00 0.00 0.00 57
20260506011546 74 253 0.0 0.9 0.00 0.00 0.00 57
20260506011042 75 270 0.9 1.7 0.00 0.00 0.00 58
20260506010542 75 235 0.0 0.9 0.00 0.00 0.00 56
20260506010038 75 237 0.9 0.9 0.00 0.00 0.00 56
20260506005535 76 266 0.0 1.7 0.00 0.00 0.00 55
20260506005031 76 284 0.9 2.6 0.00 0.00 0.00 55
20260506004528 76 223 0.0 1.7 0.00 0.00 0.00 55
20260506004025 76 225 0.0 0.9 0.00 0.00 0.00 54
20260506003521 77 232 0.9 2.6 0.00 0.00 0.00 53
20260506003017 77 212 0.0 1.7 0.00 0.00 0.00 54
20260506002514 78 223 1.7 3.5 0.00 0.00 0.00 52
20260506002009 78 215 0.0 0.9 0.00 0.00 0.00 51
20260506001506 78 278 2.6 5.2 0.00 0.00 0.00 51
20260506001003 79 264 0.9 2.6 0.00 0.00 0.00 50
20260506000500 79 232 1.7 1.7 0.00 0.00 0.00 50
20260505235957 80 226 1.7 2.6 0.00 0.00 0.00 49
20260505235456 80 280 1.7 3.5 0.00 0.00 0.00 48
20260505234952 81 240 2.6 5.2 0.00 0.00 0.00 47
20260505234450 81 268 0.9 3.5 0.00 0.00 0.00 46
20260505233946 81 230 3.5 5.2 0.00 0.00 0.00 46
20260505233444 82 283 1.7 5.2 0.00 0.00 0.00 46
20260505232941 82 271 2.6 2.6 0.00 0.00 0.00 46
20260505232439 82 250 1.7 5.2 0.00 0.00 0.00 45
20260505231936 82 252 2.6 6.1 0.00 0.00 0.00 45
20260505231433 83 221 2.6 5.2 0.00 0.00 0.00 44
20260505230931 83 220 0.9 2.6 0.00 0.00 0.00 43
20260505230429 83 231 3.5 3.5 0.00 0.00 0.00 43
20260505225925 83 261 1.7 2.6 0.00 0.00 0.00 44
20260505225422 83 192 3.5 5.2 0.00 0.00 0.00 43
20260505224918 83 134 0.9 2.6 0.00 0.00 0.00 44
20260505224415 83 103 1.7 2.6 0.00 0.00 0.00 43
20260505223912 83 160 0.9 2.6 0.00 0.00 0.00 43
20260505223409 83 189 1.7 2.6 0.00 0.00 0.00 43
20260505222905 83 267 1.7 3.5 0.00 0.00 0.00 43
20260505222401 84 270 3.5 6.1 0.00 0.00 0.00 42
20260505221858 84 272 2.6 5.2 0.00 0.00 0.00 42
20260505221355 83 264 0.9 0.9 0.00 0.00 0.00 43
20260505220852 82 214 0.0 2.6 0.00 0.00 0.00 45
20260505220349 83 225 1.7 5.2 0.00 0.00 0.00 42
20260505215847 83 206 0.9 3.5 0.00 0.00 0.00 41
20260505215344 83 193 0.9 3.5 0.00 0.00 0.00 41
20260505214842 83 261 1.7 2.6 0.00 0.00 0.00 41
20260505214340 84 297 0.9 2.6 0.00 0.00 0.00 41
20260505213836 84 250 2.6 5.2 0.00 0.00 0.00 39
20260505213335 84 219 1.7 2.6 0.00 0.00 0.00 40
20260505212830 84 229 0.9 1.7 0.00 0.00 0.00 41
20260505212328 83 285 2.6 3.5 0.00 0.00 0.00 40
20260505211823 83 142 1.7 2.6 0.00 0.00 0.00 41
20260505211321 84 229 0.9 2.6 0.00 0.00 0.00 41
20260505210817 86 268 3.5 3.5 0.00 0.00 0.00 39
20260505210314 85 298 0.0 2.6 0.00 0.00 0.00 40
20260505205811 85 251 0.9 1.7 0.00 0.00 0.00 42
20260505205310 87 304 2.6 3.5 0.00 0.00 0.00 37
20260505204806 86 206 0.9 3.5 0.00 0.00 0.00 39
20260505204304 86 225 3.5 7.0 0.00 0.00 0.00 39
20260505203801 86 257 5.2 6.1 0.00 0.00 0.00 39
20260505203258 86 253 2.6 3.5 0.00 0.00 0.00 37
20260505202754 87 267 4.3 7.0 0.00 0.00 0.00 38
20260505202250 86 319 0.9 2.6 0.00 0.00 0.00 40
20260505201747 85 264 2.6 8.7 0.00 0.00 0.00 38
20260505201244 85 223 2.6 3.5 0.00 0.00 0.00 39
20260505200743 85 171 1.7 6.1 0.00 0.00 0.00 38
20260505200240 86 169 6.1 9.6 0.00 0.00 0.00 38
20260505195734 84 223 1.7 2.6 0.00 0.00 0.00 40
20260505195233 83 279 1.7 5.2 0.00 0.00 0.00 40
20260505194730 85 156 3.5 6.1 0.00 0.00 0.00 39
20260505194226 85 144 3.5 6.1 0.00 0.00 0.00 41
20260505193722 85 238 2.6 5.2 0.00 0.00 0.00 40
20260505193219 85 202 0.9 2.6 0.00 0.00 0.00 42
20260505192718 85 321 1.7 3.5 0.00 0.00 0.00 41
20260505192215 85 149 3.5 7.0 0.00 0.00 0.00 38
20260505191713 84 258 3.5 7.8 0.00 0.00 0.00 43
20260505191211 84 210 1.7 2.6 0.00 0.00 0.00 41
20260505190708 84 211 3.5 7.0 0.00 0.00 0.00 40
20260505190207 82 289 2.6 5.2 0.00 0.00 0.00 45
20260505185704 82 234 1.7 2.6 0.00 0.00 0.00 45
20260505185200 83 242 0.9 6.1 0.00 0.00 0.00 44
20260505184656 82 288 2.6 5.2 0.00 0.00 0.00 46
20260505184154 83 254 3.5 5.2 0.00 0.00 0.00 45
20260505183650 83 222 7.0 12.2 0.00 0.00 0.00 43
20260505183148 84 30 3.5 3.5 0.00 0.00 0.00 43
20260505182645 84 106 2.6 3.5 0.00 0.00 0.00 44
20260505182142 84 277 3.5 5.2 0.00 0.00 0.00 44
20260505181638 83 220 4.3 6.1 0.00 0.00 0.00 45
20260505181136 83 173 3.5 6.1 0.00 0.00 0.00 44
20260505180631 84 176 1.7 7.8 0.00 0.00 0.00 43
20260505180129 83 186 4.3 13.0 0.00 0.00 0.00 43
20260505175625 83 235 3.5 5.2 0.00 0.00 0.00 46
20260505175122 83 191 3.5 7.8 0.00 0.00 0.00 47
20260505174618 83 170 2.6 7.0 0.00 0.00 0.00 50
20260505174114 81 186 0.9 1.7 0.00 0.00 0.00 51
20260505173611 82 168 2.6 3.5 0.00 0.00 0.00 49
20260505173108 81 280 2.6 3.5 0.00 0.00 0.00 51
20260505172606 80 231 3.5 5.2 0.00 0.00 0.00 50
20260505172102 81 238 1.7 6.1 0.00 0.00 0.00 49
20260505171556 80 208 5.2 6.1 0.00 0.00 0.00 48
20260505171054 81 232 0.9 3.5 0.00 0.00 0.00 49
20260505170550 82 250 3.5 6.1 0.00 0.00 0.00 44
20260505170047 82 132 8.7 12.2 0.00 0.00 0.00 46
20260505165542 81 229 3.5 5.2 0.00 0.00 0.00 49